Regional Weather Roundup
Issued by NWS

Home | Current Version | Previous Version | Graphics & Text | Print | Product List | Glossary On
Versions: 1 2 3 4 5 6 7 8 9 10 11 12 13 14 15 16 17 18 19 20 21 22 23 24 25 26 27 28 29 30 31 32 33 34 35 36 37 38 39 40 41 42 43 44 45 46 47 48 49 50
000
ASUS45 KBOU 220807
RWRCO

WEATHER ROUNDUP FOR COLORADO
NATIONAL WEATHER SERVICE DENVER/BOULDER CO
200 AM MDT SAT JUL 22 2017

NOTE: "FAIR" INDICATES FEW OR NO CLOUDS BELOW 12000 FEET WITH NO
SIGNIFICANT WEATHER AND/OR OBSTRUCTIONS TO VISIBILITY.

COZ001>005-013-030-031-220900-
...NORTHWEST COLORADO...

CITY           SKY/WX    TMP DP  RH WIND       PRES   REMARKS
CRAIG          FAIR      56  51  84 CALM      30.27S
HAYDEN         FAIR      57  46  67 E8        30.29S
MEEKER         FAIR      60  54  80 CALM      30.27S
RABBIT EARS PA FAIR      48  43  81 SE5       30.55F
STEAMBOAT SPGS FAIR      54  51  89 CALM      30.31F
WALDEN         FAIR      50  46  87 E5        30.41S
$$

COZ006>008-011-220900-
...WEST CENTRAL VALLEYS...

CITY           SKY/WX    TMP DP  RH WIND       PRES   REMARKS
GRAND JUNCTION FAIR      67  62  84 E8        30.16F
MONTROSE       FAIR      63  59  87 SE9       30.24F
EAGLE          CLOUDY    59  56  89 W7        30.34F
RIFLE          FAIR      63  60  90 W6        30.22F
DELTA          FAIR      69  58  67 E3        30.19F
NUCLA          FAIR      63  54  72 CALM      30.25F
$$

COZ017>023-064>068-220900-
...SOUTHWEST COLORADO...

CITY           SKY/WX    TMP DP  RH WIND       PRES   REMARKS
DURANGO        FAIR      60  55  83 W3        30.24S
CORTEZ         FAIR      61  56  83 SE3       30.20F
PAGOSA SPRINGS FAIR      58  54  87 CALM      30.32S
TELLURIDE      MOCLDY    53  52  97 SE3       30.45F
WOLF CREEK PAS CLOUDY    48  37  66 NE8       30.68S
$$

COZ009-010-012-014-032>034-037-058>063-220900-
...CENTRAL COLORADO...

CITY           SKY/WX    TMP DP  RH WIND       PRES   REMARKS
ASPEN          MOCLDY    59  52  77 SE8       30.37F
BUENA VISTA    FAIR      59  47  63 NW9       30.40S
COPPER MTN     FAIR      50  41  71 CALM      30.67F
BERTHOUD PASS  FAIR      41  28  60 NW22G30   30.66F
COTTONWOOD PAS FAIR      59  43  55 CALM      30.52F
GUNNISON       FAIR      58  53  84 CALM      30.35F
KREMMLING      FAIR      61  55  82 CALM      30.37F
LEADVILLE      MOCLDY    48  45  89 NE6       30.51F
MONARCH PASS   MOCLDY    45  41  87 E17       30.74F
SALIDA         MOCLDY    65  49  55 NW8       30.44S
SUNLIGHT       FAIR      46  43  87 E9        30.59S
WILKERSON PASS FAIR      46  41  81 W3        30.64S
$$

COZ069>075-220900-
...SAN LUIS VALLEY/SANGRE DE CRISTO MOUNTAINS...

CITY           SKY/WX    TMP DP  RH WIND       PRES   REMARKS
ALAMOSA        MOCLDY    60  50  69 S3        30.30S
DEL NORTE      FAIR      61  46  57 W8        30.36R
LA VETA PASS   NOT AVBL
SAGUACHE         N/A    N/A N/A N/A MISG        N/A
$$

COZ035-036-038>040-220900-
...NORTHERN COLORADO FRONT RANGE...

CITY           SKY/WX    TMP DP  RH WIND       PRES   REMARKS
DENVER INTL AP CLOUDY    63  59  87 SW8       30.20F
DMNS CITY PARK   N/A     63  60  88 SE10      30.18F
AURORA         MOCLDY    61  61  99 SW3       30.21F
FRONT RANGE AP FAIR      63  61  94 W7        30.21F
ERIE MUNI ARPT FAIR      64  59  82 E5        30.17F
BOULDER MUN AP FAIR      64  57  77 CALM      30.17F
CENTENNIAL     MOCLDY    62  59  90 S12       30.21F
BROOMFIELD     FAIR      63  57  82 SE7       30.21F
FORT COLLINS   FAIR      61  57  87 SW8       30.18F
LONGMONT       FAIR      65  59  82 CALM      30.19F
$$

COZ041-046-047-076>085-087-088-220900-
...PIKES PEAK/PALMER DIVIDE AND SOUTHERN FOOTHILLS...

CITY           SKY/WX    TMP DP  RH WIND       PRES   REMARKS
COLO. SPRINGS  MOCLDY    65  57  75 NW18G28   30.23F
A. F. ACADEMY  MOCLDY    60  56  86 N8        30.26F
SCHRIEVER AFB  MOCLDY    62  54  76 NW18G24   30.22F
CHEYENNE MTN   MOCLDY    65  50  58 NW18      30.21F
ELLICOTT       MOCLDY   N/A N/A N/A N16       30.18F
FALCON           N/A     60  53  77 NW14      30.28F
FORT CARSON    MOCLDY    65  55  71 N17       30.19F
LIMON          FAIR      70  53  54 VRB7      30.12F
MONUMENT HILL  FAIR      55  54  94 W9        30.32F
CANON CITY     PTCLDY    66  61  82 W7        30.17F
WALSENBURG     FAIR      63  55  77 S8        30.24S
TRINIDAD       FAIR      67  52  58 W7        30.22F
$$

COZ042>045-048>051-090-091-220900-
...NORTHEAST COLORADO...

CITY           SKY/WX    TMP DP  RH WIND       PRES   REMARKS
GREELEY ARPT   FAIR      65  60  84 W7        30.15F
AKRON          CLOUDY    64  59  83 S13       30.10S
BURLINGTON     FAIR      70  57  63 NW17      30.07S
WRAY           NOT AVBL
YUMA           FAIR      64  50  59 N10       30.06F
STERLING       FAIR      63  63 100 NE6       30.06F
HOLYOKE        FAIR      73  61  64 W20G35    30.03F
FORT MORGAN    MOCLDY    64  61  91 SW5       30.11F
$$

COZ086-089-092>099-220900-
...SOUTHEAST COLORADO...

CITY           SKY/WX    TMP DP  RH WIND       PRES   REMARKS
PUEBLO         FAIR      73  55  53 N18G28    30.11R
LA JUNTA       FAIR      70  56  61 NE8       30.09F
LAMAR          FAIR      74  56  53 NW5       30.04S
SPRINGFIELD      N/A     68  55  63 N9        30.09R
$$



USA.gov is the U.S. government's official web portal to all federal, state and local government web resources and services.